Location: *
(60.1759°S, 155.0663°W)
Time: 17:41:54
(UTC+00:00)

Cosmos 1745 Rocket - Pass Details

Date: 17 September 2019
Orbit: 953 x 997 km, 83.0° (Epoch: 22 October)

Event Time Altitude Azimuth Distance (km) Brightness Sun altitude
Rises 15:14:15 0° 195° (SSW) 3,761 7.0 -9.4°
Reaches altitude 10° 15:16:49 10° 193° (SSW) 2,804 6.4 -9.1°
Maximum altitude 15:23:18 79° 105° (ESE) 1,029 4.3 -8.3°
Drops below altitude 10° 15:29:39 10° 18° (NNE) 2,751 6.5 -7.5°
Sets 15:32:09 0° 16° (NNE) 3,686 7.1 -7.2°
